Other Surface Observations
Issued by NWS

Current Version | Previous Version | Text Only | Print | Product List | Glossary On
Versions: 1 2 3 4 5 6 7 8 9 10 11 12 13 14 15 16 17 18 19 20 21 22 23 24 25 26 27 28 29 30 31 32 33 34 35 36 37 38 39 40 41 42 43 44 45 46 47 48 49 50
558
SXUS52 KTAE 241205
OSOTAE
OSOTAE
North Florida/South Alabama/Southwest Georgia Weather Roundup
National Weather Service Tallahassee Florida
800 AM EDT FRI MAR 24 2017

Note: "fair" indicates few or no clouds below 12,000 feet with no
significant weather and/or obstructions to visibility.

!FLZ017-115-028-034-025-241300
...North Florida...

CITY           SKY/WX    TMP DP  RH WIND       PRES   REMARKS
TALLAHASSEE    CLEAR     56  54  93 E6        30.37R
APALACHICOLA   PTCLDY    64  61  90 E10       30.32R
PERRY          CLEAR     55  54  95 NE3       30.38S FOG
CROSS CITY     CLEAR     54  54 100 NE5       30.37R
JACKSONVILLE   PTCLDY    51  51 100 CALM      30.40R
$$

!FLZ112-006-005-002-011-241300
...Florida Panhandle...

CITY           SKY/WX    TMP DP  RH WIND       PRES   REMARKS
MARIANNA       CLOUDY    58  54  86 E6        30.35R
BONIFAY        NOT AVBL
PANAMA CITY NW FAIR      58  54  86 E7        30.31S
TYNDALL AFB    CLEAR     59  55  88 E10       30.32S
TYND DRONE APT FAIR      59  57  94 E10       30.32R
DE FUNIAK SPR  CLOUDY    60  53  78 E10       30.34R
EGLIN AFB      CLOUDY    62  56  79 E8        30.31R
DESTIN         CLOUDY    64  60  87 E7        30.31R
HURLBURT       NOT AVBL
CRESTVIEW      CLOUDY    61  54  77 SE6       30.34R
PENSACOLA      CLOUDY    67  60  78 E13G23    30.29R
$$

!ALZ063-066-241300
...South Alabama...

CITY           SKY/WX    TMP DP  RH WIND       PRES   REMARKS
DOTHAN         CLOUDY    57  54  89 E7        30.39R
OZARK CAIRNS   CLOUDY    58  53  82 E9        30.35R
FT RUCKER HELI CLOUDY    58  53  84 E3        30.35R
RUCKER HELI 3  CLOUDY    57  53  85 SE8       30.34S
RUCKER HELI 2  CLOUDY    58  53  84 SE7       30.35R
FLORALA APT    CLOUDY    59  52  77 E7        30.35R
ANDALUSIA      CLOUDY    61  52  72 E9        30.33R
TROY           CLOUDY    59  53  80 SE8       30.36R
EUFALA         CLOUDY    59  51  75 SE6       30.38R
MOBILE         CLOUDY    68  61  78 SE14      30.25R
$$

!GAZ120>161-241300
...Southwest and South Central Georgia...

CITY           SKY/WX    TMP DP  RH WIND       PRES   REMARKS
THOMASVILLE    MOCLDY    54  54 100 E6        30.40R
BAINBRIDGE     PTCLDY    54  52  94 E5        30.38S
MOODY AFB      CLOUDY    53  52  95 NE3       30.39R
VALDOSTA       CLOUDY    54  53  97 E6        30.40R FOG
MOULTRIE         N/A     54  52  94 E3        30.40S FOG
BLAKELY        CLOUDY    59  54  82 E5        30.39R
ALBANY         CLOUDY    56  54  93 E6        30.42R
TIFTON         CLOUDY    52  52 100 E6        30.41R
FITZGERALD     FAIR      51  51  99 E3        30.44S
CORDELE        CLOUDY    56  52  86 E3        30.43S
AMERICUS       CLOUDY    54  46  76 E6        30.43R
HOMERVILLE     CLOUDY    54  54 100 E5        30.42R FOG
$$

!GMZ750-755-770-775-241300
...Coastal and Buoy Obs...

STATION/POSITION TIME  TEMP    WIND        PRES    VSBY  WAVE
                       AIR SEA DIR/SP/G                  HT/PER
                 (UTC) (F)     (DEG/KT/KT) (MB)    (MI)  (FT/S)
KEATON BEACH     1200   55      70/  8/  9 1027.7R
CEDAR KEY        1100   60      60/ 11/ 13 1027.6R
C TOWER          1200   65     110/ 23/ 26 1027.2R
APALACHICOLA BUO 1050   68 68  110/ 19/ 23 1025.2          5/ 6
PANAMA CITY BUOY 1050   70 71              1024.3          8/ 7
MOBILE BUOY      1150   72 72  120/ 21/ 27 1023.0R         8/ 7
ORANGE BCH AL BU 1050   69 69  130/ 19/ 23 1023.7          7/ 7
$$




USA.gov is the U.S. government's official web portal to all federal, state and local government web resources and services.